Location: New Plymouth
(39.0670°S, 174.0830°E)
Time: 15:12:08
(UTC+12:00)

ISS - Visible Passes

Search period start: 17 June 2019 00:00
Search period end: 27 June 2019 00:00
Orbit: 408 x 418 km, 51.6° (Epoch: 17 June)

Date Brightness Start Highest point End Pass type
(mag) Time Alt. Az. Time Alt. Az. Time Alt. Az.
20 Jun -1.0 19:11:31 10° N 19:11:55 12° N 19:11:55 12° N visible
21 Jun -1.5 18:23:23 10° NNE 18:24:50 12° NE 18:24:50 12° NE visible
22 Jun -2.6 19:08:12 10° NW 19:10:32 40° NNW 19:10:32 40° NNW visible
23 Jun -2.8 18:18:59 10° NNW 18:22:05 34° NE 18:23:18 25° E visible
23 Jun -0.3 19:55:44 10° W 19:56:08 12° W 19:56:08 12° W visible
24 Jun -2.8 19:05:47 10° WNW 19:08:49 45° SW 19:08:49 45° SW visible
25 Jun -3.7 18:16:02 10° NW 18:19:27 82° SW 18:21:25 23° SE visible
25 Jun -0.3 19:54:14 10° WSW 19:54:14 10° WSW 19:54:14 10° WSW visible
26 Jun -1.8 19:03:58 10° W 19:06:44 23° SSW 19:06:46 23° SSW visible
